Showing default

KAZEOSAT 2, 40010

Orbit data source: Space-Track

KAZEOSAT 2, 40010 is a payload satellite owned by Kazkosmos (KZ) in SSO that was launched on Thu, 19 Jun 2014 UTC via a DNEPR launch vehicle from the Orenburg, Russia (OREN). Payload-class satellites include a variety of spacecraft equipped with specific instruments for various scientific and technological missions. These include communications satellites like Starlink; space stations such as the ISS; scientific satellites like the Hubble; Earth observation satellites from companies like Planet Labs, Umbra, and HawkEye 360; GPS; miniature CubeSats for education and research; and military/defense satellites.

Loading next visibility...
Identifier
40010, 2014-033A
Orbit
SSO
Country
Flag of KZKZ / KAZ
Related business
Manufacturer
SSTL (Astrium)
Mission
Operational Civil Imaging
Bus & Motor
SSTL-150, AOCS
Mass
177 kg wet, 177 kg dry
Launch date (UTC)
2014-06-19 (12 years ago)
Launch vehicle
DNEPR
Launch site
Orenburg, Russia (OREN)
Object type
Payload
Rocket body
Debris
Shape & HBR
Box, 1.5 m
Radar Cross Section
1.500 m², Medium (>0.1 m² and < 1m²)

Expand to show TLE details & history
Last TLE update: 22 hours ago

TLE from 22 hours ago
0 KAZEOSAT 2
1 40010U 14033A   26172.54108969  .00000113  00000-0  18924-4 0  9999
2 40010  97.5407  11.9225 0007483 313.6499  46.4096 14.85473699649606
Epoch: 2026-06-21T12:59Z
TLE epoch observation values (Epoch: 2026-06-21T12:59:10.149Z)
Latitude
0.00001°
Longitude
-92.60967°
Altitude
611.534 km
Speed
7.555 km/s
True Right ascension
00h 47m 41s
True Declination
0° 00' 00"
Sunlit
Object was in daylight at epoch
Visualization orbit readout
Latitude
Unknown
Longitude
Unknown
Altitude
Unknown
Speed
Unknown
Apparent Right ascension
Unknown
Apparent Declination
Unknown
Sunlit
N/A
Visualization observer readout
Local Sidereal Time
21:42:14
Azimuth
Unknown
Elevation
Unknown
Doppler factor
Unknown
Orbital elements
Apogee altitude
614.346 km
Perigee altitude
603.889 km
Semi-major axis
6,987.254 km
Eccentricity
0.00075
Inclination
97.5407°
RAAN
11.9225°
Arg. of periapsis
313.6499°
True anomaly
46.47175°
Mean anomaly
46.4096°
Eccentric anomaly
46.44067°
Mean motion
3.71607 °/min
Orbital period
96.88 mins
BSTAR
0.000018924
Loading maneuver chart data...
Computing Atmospheric mass density...
Loading historical data...
Loading historical data...
Loading historical data...
Loading historical data...
Loading historical data...
Loading historical data...
Loading historical data...

Documentation

Showing up to 5 results
|